Regional Weather Roundup
Issued by NWS Sterling, VA

Home | Current Version | Previous Version | Text Only | Print | Product List | Glossary Off
Versions: 1 2 3 4 5 6 7 8 9 10 11 12 13 14 15 16 17 18 19 20 21 22 23 24 25 26 27 28 29 30 31 32 33 34 35 36 37 38 39 40 41 42 43 44 45 46 47 48 49 50

081
ASUS41 KLWX 271110
RWRLWX

REGIONAL WEATHER ROUNDUP
NATIONAL WEATHER SERVICE BALTIMORE MD/WASHINGTON DC
700 AM EDT MON MAR 27 2017

Note: "FAIR" indicates few or no clouds below 12,000 feet
with no significant weather and/or obstructions to visibility.
 TC=TEMPERATURE CELSIUS

 * =Non NWS site. Station does not report precipitation (e.g. rain,
    snow, etc.), thunder, or fog.

DCZ001-MDZ009-015-VAZ040>042-051-053>054-271200-
WASHINGTON METRO

CITY           SKY/WX    TMP DP  RH WIND       PRES   REMARKS
WASHINGTON NAT DRZL/FOG  48  48 100 N3        30.11S VSB 1/2
DULLES         FOG       46  45  96 S3        30.08F VSB 3/4
ANDREWS AFB    FOG       46  46 100 N3        30.09S VSB<1/4
FT BELVOIR     CLOUDY    46  46 100 CALM      30.10F FOG
QUANTICO       FOG       48  48 100 NE5       30.12R VSB 3/4
COLLEGE PARK*  CLOUDY    45  43  93 CALM      30.10F VSB 1
LEESBURG*      CLOUDY    46  46 100 S3        30.09R FOG
MANASSAS*      CLOUDY    47  46  97 SE3       30.10F FOG

$$

MDZ006>007-011-014-271200-
BALTIMORE METRO

CITY           SKY/WX    TMP DP  RH WIND       PRES   REMARKS
BWI AIRPORT    FOG       44  44 100 CALM      30.10F VSB 1/2
MD SCIENCE CTR   N/A     46  44  93 MISG      30.11S
MARTIN STATE   FOG       46  46 100 NW3       30.13R VSB 1/2
ANNAPOLIS      FOG       47  46  97 NW5       30.11R VSB 1/4
FORT MEADE*    CLOUDY    45  43  93 CALM      30.13S VSB 3/4

$$

MDZ012-015-019>023-271200-
MARYLAND EASTERN SHORE

CITY           SKY/WX    TMP DP  RH WIND       PRES   REMARKS
OCEAN CITY     MOCLDY    46  44  93 S3        30.13S
SALISBURY      PTCLDY    52  52 100 S7        30.11S
BAY BRIDGE AP* FOG       46  46 100 NW5       30.11R VSB 1/4
CAMBRIDGE*     PTCLDY    52  50  93 VRB7      30.09F
EASTON*        CLOUDY    48  46  93 CALM      30.13S FOG

$$

MDZ017>025-271200-
SOUTHERN MARYLAND

CITY           SKY/WX    TMP DP  RH WIND       PRES   REMARKS
PATUXENT RIVER CLOUDY    47  47 100 CALM      30.09R
ST INIGOES     CLOUDY    53  52  96 S6        30.09S
LEONARDTOWN*   CLOUDY    52  50  93 CALM      30.10S

$$

MDZ003>005-271200-
NORTH CENTRAL MARYLAND

CITY           SKY/WX    TMP DP  RH WIND       PRES   REMARKS
FREDERICK*     DRIZZLE   46  46 100 CALM      30.11S
HAGERSTOWN APT CLOUDY    46  45  96 W3        30.06S
WESTMINSTER*   CLOUDY    45  45 100 S3        30.07S FOG

$$

MDZ501>502-271200-
WESTERN MARYLAND

CITY           SKY/WX    TMP DP  RH WIND       PRES   REMARKS
OAKLAND*       CLOUDY    50  50 100 SW3       30.01S FOG
CUMBERLAND*    CLOUDY    46  46 100 CALM      30.08S

$$

VAZ025>031-271200-
SHENANDOAH VALLEY

CITY           SKY/WX    TMP DP  RH WIND       PRES   REMARKS
WINCHESTER*    CLOUDY    45  45 100 CALM      30.05S FOG
FRONT ROYAL*   CLOUDY    46  46 100 CALM      30.04F
LURAY*         CLOUDY    50  50 100 N3        30.04F
NEW MARKET*    MOCLDY    45  44  96 CALM      30.05R
STAUNTON*      CLOUDY    51  49  96 CALM      30.08S
WAYNESBORO*    MOCLDY    51  51 100 SE5       30.05F

$$

WVZ021-048>050-054>055-271200-
EASTERN WEST VIRGINIA PANHANDLE

CITY           SKY/WX    TMP DP  RH WIND       PRES   REMARKS
MARTINSBURG    CLOUDY    46  45  96 CALM      30.05S FOG
PETERSBURG*    CLOUDY    48  47  95 CALM      30.05S

$$

VAZ036>039-050-271200-
CENTRAL FOOTHILLS

CITY           SKY/WX    TMP DP  RH WIND       PRES   REMARKS
CHARLOTTESVILL FOG       50  49  96 S3        30.08F VSB 1
CULPEPER*      FOG       49  49 100 CALM      30.11S VSB 1/2
ORANGE*        CLOUDY    46  46 100 CALM      30.11S FOG
GORDONSVILLE*  FOG       48  48 100 CALM      30.09S VSB 3/4
WARRENTON*     FOG       48  46  91 CALM      30.09F VSB 3/4

$$

VAZ055>057-271200-
NORTH AND CENTRAL PIEDMONT

CITY           SKY/WX    TMP DP  RH WIND       PRES   REMARKS
FREDERICKSBRG* FOG       49  49 100 CALM      30.10R VSB 1/4
STAFFORD*      FOG       47  47 100 N3        30.14R VSB 1/4

$$

NCZ024-NYZ072-PAZ021-071-VAZ022-071-271200-
OTHER REGIONAL OBSERVATIONS

CITY           SKY/WX    TMP DP  RH WIND       PRES   REMARKS
NEW YORK CITY  LGT RAIN  39  38  96 VRB5      30.15F FOG
PHILADELPHIA   FOG       43  42  97 E6        30.11F VSB 3/4
PITTSBURGH     MOCLDY    55  54  96 SW6       29.96R
ROANOKE        CLOUDY    55  54  96 SE6       30.10S
RICHMOND       MOCLDY    56  55  97 S7        30.10R
RALEIGH        CLOUDY    60  55  83 SW8       30.14R

$$

ANZ530>537-271200-
MARINE OBSERVATIONS

STATION/POSITION TIME  TEMP    WIND        PRES
                       AIR SEA DIR/SP/G
                 (UTC) (F)     (DEG/KT/KT) (MB)
THOMAS PT LIGHT  1100   45 45  340/  6/  6   N/A
BALT KEY BRIDGE  1048   44     320/  4/  4 1019.7R
COVE POINT       1048   46     200/  5/  6 1019.6S
LEWISETTA        1048   56 51  220/  9/ 11 1018.7R
SOLOMONS ISLAND  1048   48 47   90/  4/  4   N/A
PINEY POINT      1048          140/  5/  5   N/A

$$





USA.gov is the U.S. government's official web portal to all federal, state and local government web resources and services.